Content
SEND FEEDBACK

Daily
Averages
Monthly
Summary
United States of America

CARSON CITY, NEVADA


Home > North America > United States > Nevada
Elevation: 4742 feet     Latitude: 39 09N     Longitude: 119 46W

WEATHER
 
SELECT A DAY
Number of Records: 93,011;   Date Range: 7/14/10 - 8/29/14
 
SHARE

PRINT THIS DATA

[ ← Previous Day ]
WEATHER ALMANAC - JANUARY 31, 2013
[ Next Day → ]
[ °C ]   °F
Weather ElementAverageHighLow
Temperature37.9 °F55.4 °F (2:15 pm)24.8 °F (6:35 am)
Dewpoint27.5 °F32 °F (12:55 pm)23 °F (6:15 am)
Humidity69.7 %93 % (1:55 am)36 % (3:15 pm)
Barometer30.33 in30.42 in (1:35 am)30.22 in (4:35 pm)
Wind Speed1.9 mph10.4 mph (2:15 pm)
Weather ElementAverage
Visibility10 mi
Wind DirectionNE (49.4 °)

Weather ElementTotal
Precipitation---
Heating Degree Days24.9 (Base 65)
Averaged from 67 records on January 31, 2013
WEATHER CONDITIONS BREAKOUT
WIND DIRECTION BREAKOUT
WEATHER BY HOUR - JANUARY 31, 2013
[ °C ]   °F
Local TimeTemperatureDewpointHumidityBarometerVisibilityWind DirectionWind SpeedGust SpeedPrecipitationEventsConditions
12:35 AM32.0 °F26.6 °F80 %30.41 in10.0 miNW (310°)4.6 mphClear
12:55 AM32.0 °F26.6 °F80 %30.41 in10.0 miNW (310°)4.6 mphClear
1:15 AM32.0 °F26.6 °F80 %30.41 in10.0 miCalmClear
1:35 AM32.0 °F26.6 °F80 %30.42 in10.0 miCalmClear
1:55 AM28.4 °F26.6 °F93 %30.42 in10.0 miCalmClear
2:15 AM28.4 °F26.6 °F93 %30.42 in10.0 miCalmClear
2:35 AM26.6 °F24.8 °F93 %30.41 in10.0 miCalmClear
3:15 AM28.4 °F26.6 °F93 %30.40 in10.0 miCalmClear
3:35 AM26.6 °F24.8 °F93 %30.39 in10.0 miCalmClear
3:55 AM26.6 °F24.8 °F93 %30.39 in10.0 miCalmClear
4:15 AM26.6 °F24.8 °F93 %30.39 in10.0 miCalmClear
4:35 AM26.6 °F24.8 °F93 %30.39 in10.0 miCalmClear
4:55 AM26.6 °F24.8 °F93 %30.39 in10.0 miNW (310°)3.5 mphClear
5:15 AM26.6 °F24.8 °F93 %30.39 in10.0 miCalmClear
5:35 AM26.6 °F24.8 °F93 %30.39 in10.0 miCalmClear
5:55 AM26.6 °F24.8 °F93 %30.38 in10.0 miCalmClear
6:15 AM26.6 °F23.0 °F86 %30.38 in10.0 miCalmClear
6:35 AM24.8 °F23.0 °F93 %30.38 in10.0 miCalmClear
6:55 AM24.8 °F23.0 °F93 %30.38 in10.0 miCalmClear
7:15 AM24.8 °F23.0 °F93 %30.38 in10.0 miCalmClear
7:35 AM26.6 °F24.8 °F93 %30.38 in10.0 miCalmClear
7:55 AM28.4 °F24.8 °F86 %30.39 in10.0 miCalmClear
8:15 AM30.2 °F26.6 °F86 %30.39 in10.0 miCalmClear
8:35 AM32.0 °F26.6 °F80 %30.39 in10.0 miCalmClear
8:55 AM32.0 °F26.6 °F80 %30.39 in10.0 miCalmClear
9:15 AM35.6 °F26.6 °F70 %30.39 in10.0 miCalmClear
9:55 AM37.4 °F24.8 °F60 %30.38 in10.0 miCalmClear
10:15 AM39.2 °F26.6 °F61 %30.37 in10.0 miCalmClear
10:35 AM41.0 °F26.6 °F57 %30.37 in10.0 miSSW (200°)3.5 mphClear
10:55 AM44.6 °F26.6 °F49 %30.36 in10.0 miCalmClear
11:15 AM44.6 °F26.6 °F49 %30.35 in10.0 miCalmClear
11:35 AM46.4 °F26.6 °F46 %30.34 in10.0 miCalmClear
11:55 AM46.4 °F28.4 °F50 %30.33 in10.0 miCalmClear
12:15 PM48.2 °F28.4 °F46 %30.32 in10.0 miCalmClear
12:35 PM50.0 °F30.2 °F47 %30.30 in10.0 miENE (70°)4.6 mphClear
12:55 PM53.6 °F32.0 °F44 %30.29 in10.0 miEast (80°)8.1 mphClear
1:15 PM53.6 °F32.0 °F44 %30.28 in10.0 miEast (90°)9.2 mphClear
1:55 PM53.6 °F32.0 °F44 %30.26 in10.0 miENE (70°)9.2 mphClear
2:15 PM55.4 °F32.0 °F41 %30.26 in10.0 miEast (80°)10.4 mphClear
2:35 PM55.4 °F32.0 °F41 %30.25 in10.0 miEast (90°)5.8 mphClear
2:55 PM55.4 °F30.2 °F38 %30.24 in10.0 miENE (60°)3.5 mphClear
3:15 PM55.4 °F28.4 °F36 %30.23 in10.0 miEast (100°)3.5 mphClear
3:35 PM55.4 °F30.2 °F38 %30.23 in10.0 miEast (80°)4.6 mphClear
3:55 PM55.4 °F32.0 °F41 %30.23 in10.0 miEast (90°)5.8 mphClear
4:15 PM55.4 °F32.0 °F41 %30.23 in10.0 miEast (90°)5.8 mphClear
4:35 PM55.4 °F32.0 °F41 %30.22 in10.0 miEast (90°)4.6 mphClear
4:55 PM50.0 °F32.0 °F50 %30.23 in10.0 miEast (80°)5.8 mphClear
5:15 PM48.2 °F32.0 °F54 %30.24 in10.0 miNE (50°)5.8 mphClear
5:35 PM48.2 °F32.0 °F54 %30.24 in10.0 miNE (40°)8.1 mphClear
6:15 PM46.4 °F28.4 °F50 %30.26 in10.0 miCalmClear
6:35 PM42.8 °F28.4 °F57 %30.26 in10.0 miWNW (300°)3.5 mphClear
6:55 PM41.0 °F28.4 °F61 %30.27 in10.0 miCalmClear
7:15 PM41.0 °F28.4 °F61 %30.27 in10.0 miCalmClear
7:35 PM37.4 °F28.4 °F70 %30.27 in10.0 miCalmClear
7:55 PM37.4 °F28.4 °F70 %30.27 in10.0 miCalmClear
8:15 PM37.4 °F28.4 °F70 %30.28 in10.0 miCalmClear
8:35 PM37.4 °F28.4 °F70 %30.28 in10.0 miNNE (30°)3.5 mphClear
8:55 PM37.4 °F28.4 °F70 %30.28 in10.0 miCalmClear
9:15 PM33.8 °F28.4 °F81 %30.29 in10.0 miCalmClear
9:35 PM33.8 °F28.4 °F81 %30.29 in10.0 miNNW (340°)4.6 mphClear
9:55 PM33.8 °F28.4 °F81 %30.28 in10.0 miNorth (350°)5.8 mphClear
10:15 PM33.8 °F28.4 °F81 %30.28 in10.0 miCalmClear
10:35 PM32.0 °F26.6 °F80 %30.28 in10.0 miCalmClear
10:55 PM32.0 °F26.6 °F80 %30.28 in10.0 miCalmClear
11:15 PM32.0 °F26.6 °F80 %30.29 in10.0 miCalmClear
11:35 PM32.0 °F26.6 °F80 %30.29 in10.0 miCalmClear
11:55 PM32.0 °F26.6 °F80 %30.29 in10.0 miCalmClear
Hourly data recorded from KCXP, located miles away from Carson City, Nevada







STORIES FROM OUR PARTNERS